EW8845 Weather Reports


time (UTC)temp
F
wind
direction
speed
knots
gust
knots
rain 1hr
in
rain 24hr
in
rain mn
in
humidity
%
barometer
mb
20260507101540 51 16 1.7 6.1 0.00 0.22 0.00 74 1014.7
20260507100012 50 43 1.7 7.8 0.00 0.22 0.00 74 1014.6
20260507094548 50 44 3.5 8.7 0.00 0.22 0.00 76 1014.5
20260507093023 50 54 1.7 4.3 0.00 0.22 0.00 77 1014.3
20260507091601 50 25 0.9 5.2 0.00 0.22 0.00 78 1014.3
20260507090037 50 35 0.9 7.8 0.00 0.22 0.00 78 1014.1
20260507084513 50 19 0.9 9.6 0.00 0.22 0.00 78 1013.8
20260507083046 49 68 3.5 7.8 0.00 0.22 0.00 78 1013.8
20260507081534 49 49 3.5 6.1 0.00 0.22 0.00 80 1013.7
20260507080100 49 59 0.0 5.2 0.00 0.22 0.00 82 1013.6
20260507074546 48 59 3.5 8.7 0.00 0.22 0.00 82 1013.4
20260507073001 48 19 3.5 8.7 0.00 0.22 0.00 83 1013.2
20260507071526 48 30 3.5 7.8 0.00 0.22 0.00 86 1013.1
20260507070003 47 360 0.0 2.6 0.00 0.22 0.00 88 1013.0
20260507064530 47 13 0.9 4.3 0.00 0.22 0.00 89 1013.0
20260507063005 46 347 0.0 5.2 0.00 0.22 0.00 89 1012.8
20260507061534 45 338 0.9 2.6 0.00 0.22 0.00 91 1012.7
20260507060006 45 333 0.0 3.5 0.00 0.22 0.00 91 1012.5
20260507054538 44 5 0.0 2.6 0.00 0.22 0.00 92 1012.5
20260507053008 43 18 0.9 4.3 0.00 0.22 0.00 92 1012.3
20260507051536 43 346 0.9 3.5 0.00 0.22 0.00 92 1012.2
20260507050024 43 350 0.0 2.6 0.00 0.22 0.00 92 1011.9
20260507044543 42 341 0.0 2.6 0.00 0.23 0.00 92 1011.7
20260507043011 42 343 0.9 4.3 0.00 0.23 0.00 92 1011.5
20260507041541 42 340 0.9 4.3 0.00 0.23 0.00 92 1011.4
20260507040013 42 336 0.9 2.6 0.00 0.23 0.00 93 1011.4
20260507034551 41 340 0.0 3.5 0.00 0.23 0.00 93 1011.2
20260507033021 41 331 0.9 2.6 0.00 0.23 0.00 93 1011.2
20260507031604 40 331 0.0 1.7 0.00 0.23 0.00 93 1011.0
20260507030027 40 330 0.0 2.6 0.00 0.23 0.00 92 1010.9
20260507024502 40 331 0.0 2.6 0.00 0.24 0.00 93 1010.8
20260507023038 40 331 0.0 0.9 0.00 0.24 0.00 92 1010.7
20260507021512 40 331 0.0 1.7 0.00 0.24 0.00 92 1010.7
20260507020050 41 331 0.0 1.7 0.00 0.24 0.00 92 1010.5
20260507014531 42 331 0.0 1.7 0.00 0.27 0.00 92 1010.5
20260507013058 42 331 0.0 1.7 0.00 0.27 0.00 92 1010.4
20260507011533 43 331 0.0 0.9 0.00 0.27 0.00 92 1010.3
20260507010007 44 331 0.0 1.7 0.00 0.27 0.00 92 1010.2
20260507004541 45 331 0.0 0.9 0.00 0.27 0.00 92 1010.1
20260507003015 45 331 0.0 1.7 0.00 0.27 0.00 92 1010.1
20260507001557 46 331 0.0 0.9 0.00 0.27 0.00 92 1009.9
20260507000035 46 331 0.0 1.7 0.00 0.27 0.00 92 1009.9
20260506234604 47 331 0.0 0.9 0.00 0.27 0.00 92 1009.8
20260506233042 47 329 0.0 2.6 0.00 0.27 0.00 92 1009.8
20260506231512 47 333 0.0 2.6 0.00 0.27 0.00 92 1009.8
20260506230040 47 326 0.9 3.5 0.00 0.27 0.00 92 1009.7
20260506224514 47 321 0.0 3.5 0.00 0.27 0.00 91 1009.6
20260506223043 47 317 0.0 1.7 0.00 0.27 0.00 91 1009.7
20260506221520 47 306 0.0 1.7 0.00 0.27 0.00 91 1009.6
20260506220055 47 332 0.0 3.5 0.00 0.27 0.00 91 1009.7
20260506214530 47 317 0.0 1.7 0.00 0.27 0.27 91 1009.5
20260506213005 47 321 0.0 0.9 0.00 0.27 0.27 90 1009.4
20260506211542 47 321 0.0 1.7 0.00 0.27 0.27 90 1009.3
20260506210016 47 319 0.0 2.6 0.00 0.27 0.27 90 1009.2
20260506204555 47 318 0.0 1.7 0.00 0.27 0.27 90 1009.1
20260506203029 47 312 0.0 0.9 0.00 0.27 0.27 90 1009.2
20260506201505 47 305 0.0 2.6 0.00 0.27 0.27 90 1009.1
20260506200043 47 315 0.0 1.7 0.00 0.27 0.27 90 1009.1
20260506194519 47 320 0.0 2.6 0.00 0.27 0.27 90 1009.1
20260506193104 47 313 0.0 2.6 0.00 0.27 0.27 89 1008.9
20260506191528 47 317 0.0 2.6 0.01 0.27 0.27 90 1008.9
20260506190003 47 319 0.0 1.7 0.01 0.27 0.27 90 1008.7
20260506184539 47 319 0.9 3.5 0.02 0.27 0.27 90 1008.6
20260506183015 47 325 0.0 2.6 0.02 0.27 0.27 90 1008.5
20260506181551 47 340 0.9 3.5 0.02 0.26 0.26 89 1008.3
20260506180027 47 5 0.0 1.7 0.03 0.26 0.26 89 1008.2
20260506174501 47 360 0.0 3.5 0.02 0.25 0.25 88 1008.1
20260506173040 47 345 1.7 4.3 0.02 0.24 0.24 88 1008.1
20260506171513 48 5 2.6 7.8 0.02 0.24 0.24 87 1008.0
20260506170104 48 347 0.9 4.3 0.01 0.23 0.23 87 1007.9
20260506164527 48 351 0.9 4.3 0.02 0.23 0.23 86 1007.9
20260506163003 48 346 0.0 3.5 0.02 0.22 0.22 86 1007.9
20260506161539 48 38 1.7 4.3 0.02 0.22 0.22 85 1007.9
20260506160020 48 15 0.9 3.5 0.02 0.22 0.22 84 1008.0
20260506154609 48 11 0.9 4.3 0.02 0.21 0.21 85 1008.0
20260506153029 48 360 0.9 5.2 0.02 0.20 0.20 85 1008.0
20260506151504 48 34 1.7 3.5 0.03 0.20 0.20 85 1008.0
20260506150041 48 355 0.9 7.0 0.03 0.20 0.20 84 1008.0
20260506144516 48 23 0.9 4.3 0.03 0.19 0.19 86 1007.9
20260506143104 48 11 0.0 3.5 0.02 0.18 0.18 86 1007.8
20260506141532 48 5 0.9 4.3 0.02 0.17 0.17 85 1007.9
20260506140003 48 344 0.9 7.8 0.02 0.17 0.17 85 1007.8
20260506134542 47 26 1.7 5.2 0.02 0.16 0.16 84 1007.9
20260506133015 48 20 3.5 7.8 0.03 0.16 0.16 85 1007.9
20260506131552 48 336 0.9 5.2 0.04 0.15 0.15 86 1007.9
20260506130030 48 355 0.9 5.2 0.04 0.14 0.14 85 1007.8
20260506124555 47 338 1.7 5.2 0.05 0.13 0.13 86 1007.7
20260506123034 47 347 0.0 8.7 0.05 0.13 0.13 85 1007.7
20260506121505 47 5 1.7 8.7 0.05 0.11 0.11 85 1007.6
20260506120041 47 27 2.6 7.0 0.05 0.10 0.10 84 1007.6
20260506114513 47 33 1.7 7.8 0.04 0.09 0.09 83 1007.3